sat.trackr.live / text

‹ back to catalog

STARLINK-37334

NORAD 68700 · 2026-081B

PAYLOAD ACTIVE UNKNOWN

§ Identity

Operator
Country
US
Launch date
2026-04-14
Launch site
AFETR
Launch vehicle
Mass (kg)
RCS (m²)

Purposes: comms

External: N2YO · Heavens-Above · Gunter

§ Orbital elements

Epoch: 2026-05-25T04:00:03.998880Z

Period
93.58 min
Inclination
53.1591°
Eccentricity
0.0001216
Mean motion
15.38711174 rev/d
Perigee alt
449.1 km
Apogee alt
450.7 km
Semi-major
6,828.1 km
B*
-6.1300e-2
RAAN
39.2357°
Arg perigee
101.7398°
Mean anomaly
6.5315°
Rev number
590

§ Raw data

STARLINK-373341 68700U 26081B   26145.16671295 -.02142142  00000+0 -61300-1 0  99912 68700  53.1591  39.2357 0001216 101.7398   6.5315 15.38711174  5907

JSON: /api/v1/satellites/68700 · /tle

For live sub-satellite position, see the globe view (requires WebGL).

§ Visibility from observer

Set your observer location to see the next 7 days of passes ≥ 10°. The values pass through the URL so the page stays shareable.

No JS? Fill the form by hand. The geolocation button needs JavaScript.